Regional Weather Roundup
Issued by NWS

Home | Current Version | Previous Version | Text Only | Print | Product List | Glossary Off
Versions: 1 2 3 4 5 6 7 8 9 10 11 12 13 14 15 16 17 18 19 20 21 22 23 24 25 26 27 28 29 30 31 32 33 34 35 36 37 38 39 40 41 42 43 44 45 46 47 48 49 50

000
ASUS43 KLSX 240557
RWRMO

WEATHER SUMMARY FOR MISSOURI
NATIONAL WEATHER SERVICE SPRINGFIELD MO
1200 AM CST SAT FEB 24 2018

NOTE: "FAIR" INDICATES FEW OR NO CLOUDS BELOW 12,000 FEET WITH NO
       SIGNIFICANT WEATHER AND/OR OBSTRUCTIONS TO VISIBILITY.
       CURRENT SKY AND/OR WEATHER CONDITIONS ARE NOT AVAILABLE FOR
       CHILLICOTHE AND FARMINGTON.

MOZ001>031-035>038-043-044-053-054-240700-
...NORTHERN AND WESTERN MISSOURI...

CITY           SKY/WX    TMP DP  RH WIND       PRES   REMARKS
KANSAS CTY INT DRIZZLE   33  31  92 NE12      30.13F FOG     WCI  24
6HR MIN TEMP:  33; 6HR MAX TEMP:  34; 6HR PCP: TRACE;

LEE`S SUMMIT   CLOUDY    33  33 100 NE12      30.12F WCI  24
6HR MIN TEMP:  33; 6HR MAX TEMP:  34; 6HR PCP:  0.08;

ST JOSEPH      CLOUDY    33  31  92 N8        30.17F WCI  26
6HR MIN TEMP:  33; 6HR MAX TEMP:  36;

CHILLICOTHE      N/A     35  30  82 N5        30.19F
6HR MIN TEMP:  35; 6HR MAX TEMP:  37;


$$
MOZ066>068-077>081-088>096-101>105-240700-
...SOUTHWEST MISSOURI...

CITY           SKY/WX    TMP DP  RH WIND       PRES   REMARKS
SPRINGFIELD    RAIN      51  50  96 SE15      30.00F FOG
6HR MIN TEMP:  45; 6HR MAX TEMP:  51; 6HR PCP:  1.02;

JOPLIN         HVY RAIN  40  40 100 N6        30.02F FOG
6HR MIN TEMP:  40; 6HR MAX TEMP:  42; 6HR PCP:  1.06;


$$
MOZ032>034-039>042-045>050-055>058-069>072-240700-
...CENTRAL MISSOURI...

CITY           SKY/WX    TMP DP  RH WIND       PRES   REMARKS
COLUMBIA       NOT AVBL
JEFFERSON CITY LGT RAIN  38  36  92 E9        30.13F
6HR MIN TEMP:  38; 6HR MAX TEMP:  39; 6HR PCP:  0.28;

ROLLA          RAIN      40  40 100 E12       30.12F FOG
6HR MIN TEMP:  39; 6HR MAX TEMP:  42; 6HR PCP:  0.34;

SEDALIA        LGT RAIN  37  37 100 NE10      30.13F FOG     WCI  30
6HR MIN TEMP:  37; 6HR MAX TEMP:  38; 6HR PCP:  0.04;

WARRENSBURG    LGT RAIN  34  32  93 NE10G16   30.11F WCI  26

$$
MOZ051-052-059>065-240700-
...EAST CENTRAL MISSOURI...

CITY           SKY/WX    TMP DP  RH WIND       PRES   REMARKS
ST LOUIS INTL  RAIN      40  39  97 NE8       30.19F FOG
6HR MIN TEMP:  40; 6HR MAX TEMP:  45; 6HR PCP:  0.28;


$$
MOZ072>076-082>087-097>100-106>115-240700-
...SOUTH CENTRAL AND SOUTHEAST MISSOURI...

CITY           SKY/WX    TMP DP  RH WIND       PRES   REMARKS
CAPE GIRARDEAU CLOUDY    50  47  89 NE7       30.16F
6HR MIN TEMP:  50; 6HR MAX TEMP:  53;

POPLAR BLUFF   CLOUDY    50  49  96 E3        30.14S
6HR MIN TEMP:  50; 6HR MAX TEMP:  52; 6HR PCP:  0.01;

WEST PLAINS    LGT RAIN  48  47  96 E10       30.07F
6HR MIN TEMP:  47; 6HR MAX TEMP:  48; 6HR PCP:  0.11;


$$


USA.gov is the U.S. government's official web portal to all federal, state and local government web resources and services.